FORMOSAT-5

Last updated on Wed Dec 17 2025 00:02:34 GMT+0000 (Coordinated Universal Time)

1 42920U 17049A 25350.28988837 .00000201 00000+0 61894-4 0 9990 2 42920 98.2451 64.5385 0009796 283.2761 76.7341 14.51007561440151
UTC large
Height (km)
Speed (km/s)
/
Latitude / Longitude
Inclination (degrees)
Orbital Period (minutes)
Azimuth
Elevation
Range (km)
Doppler Factor

Next 0 passes for location: London (51.5072 / 0.1276)

Sorry there are no passes over London.